Wetbulb
50.29 49.19 48.85 48.78 48.32 48.65 48.57 48.25 48.98 47.83 47.51 47.99 47.89 47.20 46.61 45.81 44.76 45.14 44.95 45.00 44.98 45.44
49.78 49.34 48.58 48.75 48.51 48.24 49.64 48.84 48.65 47.68 46.91 46.80 46.52 46.31 45.87 44.61 44.13 44.15 44.34 44.50 44.65 44.61
49.60 49.46 47.82 47.85 46.94 48.22 48.35 49.16 48.16 47.21 46.89 45.97 46.15 46.03 45.40 44.42 44.50 43.54 43.34 43.46 43.69 44.13
47.16 47.04 45.84 46.21 46.43 47.01 47.30 48.65 47.93 46.94 45.93 45.85 44.91 45.87 45.30 44.54 44.22 43.03 43.22 43.81 43.64 43.55
48.07 47.81 46.36 45.94 46.41 47.34 47.12 47.45 46.55 45.54 44.67 43.84 43.91 44.22 44.31 43.31 43.45 42.43 41.84 42.32 42.93 42.89
48.14 47.47 46.33 45.50 46.47 47.19 47.15 46.01 45.01 44.40 42.72 42.45 42.80 42.69 43.92 42.88 42.32 42.40 42.14 41.94 41.60 42.38
48.35 48.46 47.17 46.34 46.29 46.48 46.65 45.58 45.27 44.84 44.12 43.79 43.64 43.53 43.76 43.85 43.38 43.11 42.37 42.55 42.40 42.19
48.51 47.32 46.46 46.68 46.59 46.95 46.92 46.80 47.25 46.85 46.54 45.59 44.93 44.14 43.80 44.38 44.18 43.40 42.79 43.08 42.60 42.69
46.50 45.82 47.05 46.90 46.94 47.18 46.44 46.54 46.45 46.35 45.96 46.10 45.48 43.33 41.69 43.35 44.37 44.19 43.39 42.59 43.00 43.21
47.12 46.36 46.32 46.44 45.93 46.46 46.67 47.45 47.27 47.23 47.28 46.92 47.85 44.08 42.09 42.73 45.08 44.85 43.97 43.40 42.87 42.09
47.42 47.17 47.40 47.26 47.25 48.00 48.00 47.60 47.52 47.71 48.02 48.07 48.26 44.37 42.47 42.61 46.14 46.24 44.77 43.87 43.36 42.77
47.54 46.88 47.32 46.97 47.12 48.16 47.54 47.92 47.95 48.21 48.01 48.08 48.48 44.76 42.57 43.04 46.46 45.58 44.09 43.58 43.61 43.29
48.52 48.25 47.96 48.43 48.61 48.81 48.12 47.89 48.21 48.30 49.01 47.67 47.71 44.98 42.31 42.48 45.08 44.48 42.86 43.21 43.45 41.99
50.04 49.94 50.08 50.31 50.34 49.49 49.02 48.61 48.68 48.29 49.09 49.22 48.40 47.91 41.89 40.38 44.08 43.88 41.65 41.44 41.80 42.43
MSLP
1025.38 1025.13 1025.48 1025.55 1025.44 1025.34 1025.43 1025.91 1026.33 1026.30 1026.23 1026.21 1026.24 1026.26 1026.30 1026.06 1026.08 1026.26 1026.21 1026.27 1026.04 1025.44
1025.58 1025.34 1025.67 1025.79 1025.54 1025.68 1025.99 1026.12 1026.45 1026.49 1026.35 1026.39 1026.58 1026.60 1026.58 1026.60 1026.59 1026.45 1026.35 1026.12 1026.16 1025.88
1025.77 1025.89 1026.15 1025.93 1026.04 1025.98 1025.99 1026.12 1026.53 1026.59 1026.43 1026.31 1026.55 1026.75 1026.73 1026.90 1027.17 1026.96 1026.74 1026.41 1026.43 1026.21
1026.17 1026.35 1026.49 1026.29 1026.39 1026.36 1026.57 1026.12 1026.08 1026.38 1026.17 1026.13 1026.37 1026.76 1026.99 1027.23 1027.19 1027.06 1026.85 1026.70 1026.51 1026.12
1026.05 1026.09 1026.30 1026.41 1026.75 1026.49 1026.39 1026.39 1026.66 1026.32 1026.41 1026.16 1026.46 1027.17 1026.75 1027.04 1027.28 1027.13 1026.68 1026.52 1026.29 1025.89
1026.01 1026.33 1026.24 1026.46 1026.58 1026.39 1026.38 1026.45 1026.41 1026.55 1026.54 1026.46 1026.82 1027.01 1026.85 1027.34 1027.01 1027.12 1026.79 1026.36 1026.31 1025.96
1025.93 1026.05 1026.11 1026.36 1026.27 1026.42 1026.58 1026.34 1026.58 1026.73 1026.66 1026.60 1026.67 1026.66 1026.69 1026.99 1026.75 1026.77 1026.35 1026.13 1026.07 1025.85
1025.66 1026.03 1025.79 1026.04 1026.33 1026.43 1026.49 1026.36 1026.50 1026.49 1026.59 1026.56 1026.32 1026.23 1026.69 1026.56 1026.41 1026.24 1025.87 1025.79 1025.70 1025.30
1025.85 1025.77 1025.61 1025.64 1026.02 1026.61 1026.40 1026.21 1026.44 1026.49 1026.25 1026.27 1025.97 1026.28 1026.61 1026.61 1025.99 1025.79 1025.69 1025.41 1025.10 1024.68
1025.44 1025.24 1025.51 1025.70 1025.70 1026.27 1026.17 1026.11 1026.24 1026.12 1026.06 1025.62 1025.39 1025.79 1026.24 1026.14 1025.56 1025.32 1025.03 1024.83 1024.47 1023.92
1024.86 1024.94 1025.15 1025.12 1025.27 1025.55 1025.72 1025.72 1025.64 1025.46 1025.18 1024.94 1024.76 1025.11 1025.53 1025.65 1025.12 1024.67 1024.46 1024.13 1023.82 1023.52
1024.38 1024.61 1024.66 1024.57 1024.75 1025.04 1025.43 1024.97 1024.96 1024.93 1024.61 1024.43 1023.95 1024.22 1024.77 1025.06 1024.36 1023.93 1023.76 1023.47 1023.30 1023.16
1024.18 1024.20 1024.06 1024.33 1024.56 1024.59 1024.53 1024.30 1024.12 1024.20 1023.99 1023.59 1023.57 1023.54 1024.07 1024.24 1023.65 1023.25 1023.11 1023.07 1022.68 1022.53
1023.96 1023.98 1023.98 1023.98 1023.87 1023.74 1023.68 1023.56 1023.65 1023.56 1023.31 1023.11 1022.97 1022.85 1023.22 1023.61 1023.51 1023.00 1022.84 1022.47 1021.99 1021.67
Wind_Speed
8 6 5 6 5 5 5 5 6 7 7 7 7 7 7 6 7 8 6 8 7 4
6 7 6 6 5 5 4 5 6 6 8 8 8 8 7 7 8 7 7 7 7 5
6 6 5 5 4 5 6 6 6 5 6 8 7 7 8 6 7 7 6 5 6 6
6 5 4 4 5 5 4 5 6 5 6 6 7 6 6 5 6 6 6 6 7 7
7 6 5 5 5 5 5 5 4 4 5 6 6 5 6 7 7 7 8 8 8 9
6 5 6 6 5 5 5 5 5 5 5 4 5 4 5 5 5 6 6 7 8 8
7 6 5 4 5 4 3 4 4 3 3 3 2 3 3 4 5 6 6 6 7 8
7 5 5 4 3 2 2 1 1 2 3 3 2 2 4 5 6 7 8 7 7 7
6 6 5 4 3 4 4 4 5 6 5 6 5 3 8 9 7 8 8 8 9 9
8 6 6 5 5 6 6 5 7 7 8 8 8 8 12 12 9 9 9 10 10 10
6 5 5 5 6 7 7 8 8 8 8 8 8 8 12 13 11 9 10 10 11 11
6 7 6 5 6 7 8 8 8 8 8 8 10 7 11 9 9 9 9 9 10 11
7 7 7 8 9 9 8 9 7 10 10 9 10 9 10 9 7 8 8 10 10 10
7 8 10 9 9 8 8 8 8 9 9 10 9 10 6 7 7 7 7 9 10 9
Wind_Direction
126 115 115 94 92 99 109 95 85 68 64 67 64 54 49 57 43 40 36 31 23 0
122 122 116 116 120 112 124 119 111 78 72 70 62 53 39 42 33 29 27 31 19 352
135 126 125 127 117 121 123 139 122 89 77 70 60 45 33 27 30 21 22 21 9 355
132 126 113 111 130 128 130 129 126 89 67 71 58 46 39 24 21 18 16 15 5 5
152 130 104 118 141 132 107 97 94 73 68 67 60 43 42 24 10 4 5 2 355 358
158 154 129 132 143 129 126 112 86 75 69 67 53 36 39 6 4 352 349 349 340 338
183 166 123 110 120 128 131 114 119 96 73 62 39 10 358 337 343 332 338 333 326 320
180 175 146 142 113 150 192 202 246 246 244 250 271 274 309 317 317 319 324 320 308 305
197 199 192 167 193 252 245 242 261 262 272 269 261 233 256 273 296 303 301 304 311 313
197 196 204 208 207 241 252 262 262 267 265 268 267 232 247 255 272 286 299 304 309 314
198 216 223 223 231 246 255 259 262 261 259 267 272 237 242 250 264 272 284 298 305 307
220 219 224 236 242 242 246 251 256 264 269 262 276 243 241 241 267 269 279 295 297 304
228 242 239 236 236 237 239 255 268 265 259 262 268 269 237 240 269 271 286 294 294 279
247 248 248 249 242 243 245 256 261 266 274 271 267 282 257 243 268 271 288 297 307 311